Greater Binghamton,Edwin A Link field Binghamton US
ICAO: KBGM
IATA: BGM
Category: Medium
Scheduled Services: Yes

Elevation: 1636 ft
TransAlt. 18000 ft.

Airport Communications:
APP/DEP:118.6
ATIS:128.15
CLNC DEL:125.05
CTAF:119.3
GND:121.9
BUFFALO RDO:112.2
TWR:119.3
UNICOM:122.95

KBGM Zoom In..

Runways:

(A) RW 10 length 5001 ft width 150 ft
---- / hdg 98

(B) RW 16 length 7304 ft width 150 ft
ILS 110.30 / hdg 160

(C) RW 28 length 5001 ft width 150 ft
---- / hdg 278

(D) RW 34 length 7304 ft width 150 ft
ILS 110.30 / hdg 340

Location; KBGM
Day. 21 / Time. 05.53 Zulu
* Altimeter: 30.09
* Temperature: 17° c. 62.6°f.
* Wind from: 160° Speed 05 kn.
Dewpoint: 12° c.
Visibility: 10 Statute Miles.
Clouds: Clear (automated report).

KBGM 210553Z AUTO 16005KT 10SM CLR 17/12 A3009 RMK AO2 SLP180 T01670122 10233 20167 55002


Wind From 160°
Speed 05 kn.

 
 
jpsmedia.com for Web Design worldairports.se 2018   terms of use